Punta Gorda, FL

8:40 AM EST on December 05, 2016 (GMT -0500)
Charlotte County

Weather History for KPGD - January, 2013

Change the Weather History Date:

Wednesday, January 2, 2013

  Actual Average Record
Temperature  
Mean Temperature 68 °F -  
Max Temperature 78 °F 71 °F 82 °F (1997)
Min Temperature 57 °F 48 °F 35 °F (2008)
Cooling Degree Days 2    
Growing Degree Days 18 (Base 50)    
Moisture  
Dew Point 62 °F    
Average Humidity 90    
Maximum Humidity 100    
Minimum Humidity 62    
Precipitation  
Precipitation 0.01 in - - ()
Sea Level Pressure  
Sea Level Pressure 30.07 in    
Wind  
Wind Speed 3 mph (SSW)    
Max Wind Speed 14 mph    
Max Gust Speed -    
Visibility 6 miles    
Events Fog    
Averages and records for this station are not official NWS values.
T = Trace of Precipitation, MM = Missing Value Source: NWS Daily Summary

Daily Weather History Graph

Daily Weather History Graph

Search for Another Location

Airport or City:

Trip Planner

Search our weather history database for the weather conditions in past years. The results will help you decide how hot, cold, wet, or windy it might be!

Date:

Astronomy

Jan. 02, 2013 Rise Set
Actual Time 7:17 AM EST 5:47 PM EST
Civil Twilight 6:52 AM EST 6:12 PM EST
Nautical Twilight 6:23 AM EST 6:41 PM EST
Astronomical Twilight 5:54 AM EST 7:09 PM EST
Moon 10:45 PM EST (1/2) 10:27 AM EST (1/2)
Length of Visible Light 11h 20m
Length of Day
10h 29m
Waning Gibbous, 75% of the Moon is Illuminated
Jan 2
Waning Gibbous
Jan 4
Last Quarter
Jan 11
New
Jan 18
First Quarter
Jan 26
Full

Hourly Weather History & Observations

Time (EST) Temp. Dew Point Humidity Pressure Visibility Wind Dir Wind Speed Gust Speed Precip Events Conditions
12:53 AM 61.0 °F 59.0 °F 93% 30.07 in 10.0 mi SE 3.5 mph - N/A   Mostly Cloudy
1:53 AM 57.9 °F 57.0 °F 97% 30.07 in 6.0 mi ENE 3.5 mph - N/A   Scattered Clouds
2:03 AM 57.2 °F 57.2 °F 100% 30.07 in 4.0 mi Calm Calm - N/A   Mostly Cloudy
2:14 AM 57.2 °F 57.2 °F 100% 30.06 in 5.0 mi Calm Calm - N/A   Mostly Cloudy
2:53 AM 59.0 °F 57.9 °F 96% 30.07 in 9.0 mi Calm Calm - N/A   Mostly Cloudy
4:53 AM 60.1 °F 59.0 °F 96% 30.07 in 10.0 mi Calm Calm - N/A   Overcast
5:53 AM 57.9 °F 57.0 °F 97% 30.08 in 9.0 mi Calm Calm - N/A   Scattered Clouds
6:53 AM 59.0 °F 57.9 °F 96% 30.08 in 7.0 mi SE 4.6 mph - N/A   Clear
7:03 AM 57.2 °F 55.4 °F 94% 30.08 in 1.8 mi Calm Calm - N/A   Partly Cloudy
7:10 AM 57.2 °F 55.4 °F 94% 30.09 in 7.0 mi ENE 3.5 mph - N/A   Clear
7:53 AM 59.0 °F 57.9 °F 96% 30.10 in 7.0 mi Calm Calm - N/A   Clear
8:53 AM 66.0 °F 64.0 °F 93% 30.10 in 10.0 mi South 4.6 mph - N/A   Clear
9:53 AM 73.0 °F 66.0 °F 79% 30.11 in 10.0 mi South 9.2 mph - N/A   Clear
10:53 AM 77.0 °F 66.0 °F 69% 30.11 in 10.0 mi SW 9.2 mph - N/A   Partly Cloudy
11:53 AM 77.0 °F 64.9 °F 66% 30.09 in 10.0 mi West 9.2 mph - N/A   Mostly Cloudy
12:53 PM 78.1 °F 64.0 °F 62% 30.06 in 10.0 mi WSW 8.1 mph - N/A   Mostly Cloudy
1:53 PM 78.1 °F 64.9 °F 64% 30.03 in 10.0 mi WSW 11.5 mph - N/A   Clear
2:53 PM 78.1 °F 66.0 °F 66% 30.02 in 10.0 mi WSW 12.7 mph - N/A   Clear
3:53 PM 75.9 °F 66.0 °F 71% 30.03 in 10.0 mi West 13.8 mph - N/A   Partly Cloudy
4:53 PM 73.9 °F 66.9 °F 79% 30.04 in 10.0 mi WSW 11.5 mph - N/A   Clear
5:53 PM 70.0 °F 66.0 °F 87% 30.05 in 10.0 mi WSW 5.8 mph - N/A   Clear
6:53 PM 68.0 °F 66.0 °F 93% 30.06 in 10.0 mi WSW 3.5 mph - N/A   Clear
7:31 PM 64.4 °F 64.4 °F 100% 30.07 in 1.0 mi Calm Calm - N/A   Mist
7:53 PM 64.0 °F 63.0 °F 96% 30.08 in 0.5 mi Calm Calm - N/A Fog Fog
8:06 PM 62.6 °F 62.6 °F 100% 30.08 in 0.2 mi Calm Calm - N/A Fog Fog
8:28 PM 62.6 °F 62.6 °F 100% 30.08 in 0.2 mi Calm Calm - N/A Fog Fog
8:50 PM 62.6 °F 60.8 °F 94% 30.08 in 0.2 mi Calm Calm - N/A Fog Fog
8:53 PM 62.1 °F 61.0 °F 96% 30.08 in 0.5 mi Calm Calm - N/A Fog Fog
9:07 PM 60.8 °F 60.8 °F 100% 30.08 in 0.2 mi South 3.5 mph - N/A Fog Fog
9:14 PM 60.8 °F 60.8 °F 100% 30.09 in 0.2 mi SSE 3.5 mph - N/A Fog Fog
9:53 PM 61.0 °F 60.1 °F 97% 30.10 in 0.2 mi Calm Calm - 0.01 in Fog Fog
10:53 PM 63.0 °F 63.0 °F 100% 30.10 in 0.5 mi Calm Calm - N/A Fog Fog
11:53 PM 64.9 °F 64.9 °F 100% 30.09 in 0.2 mi Calm Calm - N/A Fog Fog